FW7718 Weather Reports


Display with metric or nautical units.
time (UTC)temp
F
wind
direction
speed
MPH
gust
MPH
rain 1hr
in
rain 24hr
in
rain mn
in
humidity
%
barometer
mb
20260504231121 79 190 9.0 10.0 0.00 0.00 0.00 54 1008.4
20260504230617 80 205 17.0 23.0 0.00 0.00 0.00 52 1008.9
20260504230116 79 159 14.0 18.0 0.00 0.00 0.00 52 1008.8
20260504225614 79 198 14.0 17.0 0.00 0.00 0.00 52 1008.6
20260504225110 80 174 10.0 14.0 0.00 0.00 0.00 52 1008.5
20260504224607 80 160 11.0 11.0 0.00 0.00 0.00 52 1008.6
20260504224104 80 190 13.0 15.0 0.00 0.00 0.00 51 1008.8
20260504223601 80 174 11.0 16.0 0.00 0.00 0.00 52 1008.7
20260504223056 80 180 15.0 17.0 0.00 0.00 0.00 51 1008.7
20260504222553 80 212 12.0 14.0 0.00 0.00 0.00 51 1008.8
20260504222050 80 165 13.0 16.0 0.00 0.00 0.00 50 1008.9
20260504221547 80 218 14.0 18.0 0.00 0.00 0.00 50 1009.0
20260504221044 80 189 17.0 20.0 0.00 0.00 0.00 48 1009.0
20260504220541 80 207 17.0 21.0 0.00 0.00 0.00 49 1009.1
20260504220038 80 218 12.0 15.0 0.00 0.00 0.00 49 1009.1
20260504215534 80 203 10.0 13.0 0.00 0.00 0.00 49 1009.2
20260504215032 80 192 15.0 18.0 0.00 0.00 0.00 48 1009.0
20260504214528 80 157 12.0 16.0 0.00 0.00 0.00 50 1009.3
20260504214024 79 184 17.0 20.0 0.00 0.00 0.00 48 1009.3
20260504213521 80 197 15.0 21.0 0.00 0.00 0.00 48 1009.5
20260504213018 80 196 15.0 18.0 0.00 0.00 0.00 48 1009.5
20260504212514 80 195 11.0 15.0 0.00 0.00 0.00 49 1009.9
20260504212011 80 191 14.0 15.0 0.00 0.00 0.00 47 1009.7
20260504211508 80 162 16.0 17.0 0.00 0.00 0.00 46 1009.9
20260504211006 80 197 17.0 22.0 0.00 0.00 0.00 46 1009.8
20260504210502 81 186 17.0 20.0 0.00 0.00 0.00 45 1009.9
20260504205959 80 205 14.0 18.0 0.00 0.00 0.00 45 1010.1
20260504205457 80 201 17.0 22.0 0.00 0.00 0.00 46 1010.0
20260504204955 80 174 18.0 20.0 0.00 0.00 0.00 45 1010.1
20260504204453 80 185 17.0 21.0 0.00 0.00 0.00 45 1010.4
20260504203952 80 217 15.0 18.0 0.00 0.00 0.00 44 1010.5
20260504203450 80 196 17.0 20.0 0.00 0.00 0.00 45 1010.6
20260504202945 80 193 15.0 17.0 0.00 0.00 0.00 45 1010.6
20260504202441 80 203 15.0 18.0 0.00 0.00 0.00 45 1010.7
20260504201938 80 168 16.0 18.0 0.00 0.00 0.00 45 1011.1
20260504201435 79 188 13.0 15.0 0.00 0.00 0.00 46 1011.0
20260504200933 79 202 12.0 14.0 0.00 0.00 0.00 46 1011.1
20260504200430 79 214 11.0 13.0 0.00 0.00 0.00 47 1011.4
20260504195926 79 205 11.0 15.0 0.00 0.00 0.00 47 1011.5
20260504195422 79 200 11.0 13.0 0.00 0.00 0.00 46 1011.5
20260504194919 78 135 10.0 13.0 0.00 0.00 0.00 47 1011.7
20260504194415 79 193 19.0 21.0 0.00 0.00 0.00 45 1011.4
20260504193911 78 194 14.0 20.0 0.00 0.00 0.00 46 1011.5
20260504193408 78 207 16.0 18.0 0.00 0.00 0.00 46 1011.7
20260504192907 79 186 11.0 13.0 0.00 0.00 0.00 46 1012.1
20260504192404 79 203 19.0 22.0 0.00 0.00 0.00 44 1011.9
20260504191903 79 159 10.0 13.0 0.00 0.00 0.00 45 1012.3
20260504191400 78 187 9.0 11.0 0.00 0.00 0.00 48 1012.2
20260504190855 79 196 13.0 16.0 0.00 0.00 0.00 45 1012.3
20260504190351 78 159 9.0 11.0 0.00 0.00 0.00 47 1012.1
20260504185848 78 194 8.0 9.0 0.00 0.00 0.00 48 1012.2
20260504185345 77 197 16.0 18.0 0.00 0.00 0.00 47 1012.3
20260504184841 77 190 15.0 17.0 0.00 0.00 0.00 48 1012.5
20260504184337 77 194 16.0 21.0 0.00 0.00 0.00 47 1012.4
20260504183833 78 183 17.0 21.0 0.00 0.00 0.00 45 1012.6
20260504183331 77 204 11.0 14.0 0.00 0.00 0.00 46 1012.7
20260504182828 77 195 15.0 20.0 0.00 0.00 0.00 45 1012.9
20260504182326 77 176 9.0 10.0 0.00 0.00 0.00 49 1012.9
20260504181822 77 229 13.0 17.0 0.00 0.00 0.00 47 1013.1
20260504181320 77 170 11.0 14.0 0.00 0.00 0.00 48 1013.2
20260504180819 77 190 14.0 18.0 0.00 0.00 0.00 46 1013.1
20260504180317 76 207 9.0 11.0 0.00 0.00 0.00 49 1013.0
20260504175815 76 190 14.0 16.0 0.00 0.00 0.00 47 1013.3
20260504175311 76 204 9.0 15.0 0.00 0.00 0.00 50 1013.4
20260504174809 76 193 18.0 22.0 0.00 0.00 0.00 46 1013.7
20260504174306 76 208 14.0 17.0 0.00 0.00 0.00 46 1013.5
20260504173803 76 167 12.0 16.0 0.00 0.00 0.00 47 1013.7
20260504173300 75 175 12.0 15.0 0.00 0.00 0.00 49 1013.5
20260504172756 74 202 11.0 14.0 0.00 0.00 0.00 49 1014.0
20260504172253 75 215 12.0 14.0 0.00 0.00 0.00 50 1013.9
20260504171749 74 211 16.0 18.0 0.00 0.00 0.00 48 1014.1
20260504171247 74 174 16.0 18.0 0.00 0.00 0.00 49 1014.3
20260504170743 74 202 13.0 15.0 0.00 0.00 0.00 50 1014.3
20260504170241 75 220 16.0 21.0 0.00 0.00 0.00 48 1014.4
20260504160159 72 201 14.0 16.0 0.00 0.00 0.00 52 1014.6
20260504151127 70 221 15.0 18.0 0.00 0.00 0.00 58 1015.1
20260504150624 69 207 13.0 15.0 0.00 0.00 0.00 62 1015.2
20260504150121 69 208 10.0 11.0 0.00 0.00 0.00 61 1015.4
20260504141050 65 212 9.0 11.0 0.00 0.00 0.00 73 1015.6
20260504140546 65 194 13.0 15.0 0.00 0.00 0.00 71 1015.4
20260504130511 61 221 8.0 10.0 0.00 0.00 0.00 78 1015.6
20260504110358 57 182 3.0 3.0 0.00 0.00 0.00 81 1014.9
20260504100314 59 199 6.0 7.0 0.00 0.00 0.00 77 1014.7
20260504081703 59 211 3.0 5.0 0.00 0.00 0.00 74 1015.2
20260504081159 59 204 4.0 5.0 0.00 0.00 0.00 74 1015.4
20260504080655 59 189 4.0 5.0 0.00 0.00 0.00 74 1015.5
20260504080152 60 207 4.0 6.0 0.00 0.00 0.00 73 1015.4
20260504070120 60 192 3.0 3.0 0.00 0.00 0.00 73 1016.1
20260504050509 61 198 3.0 3.0 0.00 0.00 0.00 68 1017.6
20260504050005 61 196 2.0 2.0 0.00 0.00 0.00 68 1017.7
20260504045502 61 197 3.0 3.0 0.00 0.00 0.00 68 1017.6
20260504044957 61 212 3.0 3.0 0.00 0.00 0.00 68 1017.6
20260504044455 61 198 3.0 3.0 0.00 0.00 0.00 67 1017.6
20260504043952 62 203 3.0 3.0 0.00 0.00 0.00 67 1017.6
20260504043449 62 196 3.0 3.0 0.00 0.00 0.00 67 1017.6
20260504042947 62 197 3.0 3.0 0.00 0.00 0.00 67 1017.5
20260504042443 62 193 3.0 3.0 0.00 0.00 0.00 66 1017.4
20260504041940 62 197 3.0 3.0 0.00 0.00 0.00 67 1017.6
20260504041436 62 196 2.0 2.0 0.00 0.00 0.00 66 1017.6
20260504040932 62 196 3.0 3.0 0.00 0.00 0.00 66 1017.5
20260504040430 62 182 2.0 2.0 0.00 0.00 0.00 66 1017.4
20260504035926 62 190 2.0 2.0 0.00 0.00 0.00 65 1017.8
20260504035423 62 205 2.0 2.0 0.00 0.00 0.00 65 1017.8
20260504034920 63 200 3.0 3.0 0.00 0.00 0.00 64 1017.8
20260504034418 63 206 3.0 3.0 0.00 0.00 0.00 63 1017.7
20260504033914 64 202 5.0 5.0 0.00 0.00 0.00 62 1017.6
20260504033412 63 205 3.0 3.0 0.00 0.00 0.00 63 1017.5
20260504032909 63 182 3.0 3.0 0.00 0.00 0.00 63 1017.3
20260504032406 64 179 2.0 2.0 0.00 0.00 0.00 62 1017.4
20260504031902 64 193 3.0 3.0 0.00 0.00 0.00 61 1017.4
20260504031359 64 198 3.0 3.0 0.00 0.00 0.00 61 1017.6
20260504030856 65 192 3.0 3.0 0.00 0.00 0.00 60 1017.4
20260504030353 65 195 5.0 6.0 0.00 0.00 0.00 59 1017.6
20260504025849 65 183 5.0 6.0 0.00 0.00 0.00 59 1017.5
20260504025346 65 193 3.0 3.0 0.00 0.00 0.00 59 1017.4
20260504024843 65 184 3.0 5.0 0.00 0.00 0.00 58 1017.4
20260504024339 66 189 3.0 5.0 0.00 0.00 0.00 58 1017.5
20260504023836 66 189 3.0 3.0 0.00 0.00 0.00 57 1017.6
20260504023333 66 184 4.0 5.0 0.00 0.00 0.00 57 1017.5
20260504022828 66 160 3.0 5.0 0.00 0.00 0.00 56 1017.4
20260504022326 66 176 2.0 2.0 0.00 0.00 0.00 57 1017.4
20260504021822 66 157 3.0 3.0 0.00 0.00 0.00 56 1017.3
20260504021320 67 177 3.0 3.0 0.00 0.00 0.00 56 1017.5
20260504020817 67 183 3.0 3.0 0.00 0.00 0.00 56 1017.5
20260504020313 67 191 3.0 5.0 0.00 0.00 0.00 56 1017.3
20260504015809 67 191 3.0 5.0 0.00 0.00 0.00 55 1017.3
20260504015306 68 202 3.0 5.0 0.00 0.00 0.00 55 1017.2
20260504014802 68 191 3.0 3.0 0.00 0.00 0.00 53 1017.4
20260504014258 68 189 5.0 5.0 0.00 0.00 0.00 53 1017.5
20260504013756 68 195 3.0 3.0 0.00 0.00 0.00 53 1017.3
20260504013253 68 189 5.0 5.0 0.00 0.00 0.00 53 1017.2
20260504012749 68 190 3.0 6.0 0.00 0.00 0.00 53 1017.3
20260504012247 69 174 3.0 3.0 0.00 0.00 0.00 53 1017.1
20260504011744 69 178 2.0 2.0 0.00 0.00 0.00 52 1017.3
20260504011241 70 187 3.0 3.0 0.00 0.00 0.00 51 1017.2
20260504010737 70 189 4.0 5.0 0.00 0.00 0.00 50 1017.1
20260504010233 71 183 3.0 3.0 0.00 0.00 0.00 49 1017.0
20260504005730 71 205 3.0 3.0 0.00 0.00 0.00 48 1017.2
20260504005227 72 203 3.0 3.0 0.00 0.00 0.00 46 1017.3
20260504004724 73 189 4.0 5.0 0.00 0.00 0.00 45 1017.1
20260504004221 73 211 4.0 5.0 0.00 0.00 0.00 44 1017.0
20260504003718 74 207 5.0 6.0 0.00 0.00 0.00 43 1016.9
20260504003215 74 207 5.0 7.0 0.00 0.00 0.00 42 1017.1
20260504002712 75 198 7.0 8.0 0.00 0.00 0.00 41 1017.0
20260504002209 75 207 5.0 6.0 0.00 0.00 0.00 41 1017.2
20260504001707 76 191 6.0 7.0 0.00 0.00 0.00 41 1017.1
20260504001203 76 197 5.0 6.0 0.00 0.00 0.00 42 1017.2
20260504000700 77 205 6.0 7.0 0.00 0.00 0.00 40 1017.1
20260504000157 77 200 5.0 9.0 0.00 0.00 0.00 42 1017.0
20260503235655 77 207 6.0 7.0 0.00 0.00 0.00 41 1017.3
20260503235151 77 192 6.0 7.0 0.00 0.00 0.00 40 1017.5
20260503234649 78 198 5.0 6.0 0.00 0.00 0.00 39 1017.4
20260503234148 78 198 8.0 10.0 0.00 0.00 0.00 39 1017.3
20260503233644 78 201 8.0 9.0 0.00 0.00 0.00 36 1017.2
20260503233139 78 210 9.0 10.0 0.00 0.00 0.00 37 1017.3
20260503232637 78 209 9.0 10.0 0.00 0.00 0.00 36 1017.5
20260503232134 78 201 11.0 13.0 0.00 0.00 0.00 36 1017.6
20260503231632 79 210 11.0 14.0 0.00 0.00 0.00 36 1017.5